Powrót do katalogu

COSMOS 724

AktywnyMilitariaLEO
NORAD 7727·PAYLOAD·🇷🇺 Russia

Wystrzelony Apr 7, 1975 z Baikonur Cosmodrome

Loading…

Następne Przeloty (najbliższe 24 godziny)

TLE

ŚwieżeSource: Space-Track

Epoka: Sep 14, 2026, 13:16 UTC

1 07727U 75025A   26257.55325228 -.00000062  00000-0  17855-4 0  9995
2 07727  65.5896 186.1367 0045653  73.5058 287.1024 13.99133286628192

Śledź COSMOS 724 w czasie rzeczywistym z AllMySat

Download on the App Store